Regional Weather Roundup
Issued by NWS

Home | Current Version | Previous Version | Text Only | Print | Product List | Glossary Off
Versions: 1 2 3 4 5 6 7 8 9 10 11 12 13 14 15 16 17 18 19 20 21 22 23 24 25 26 27 28 29 30 31 32 33 34 35 36 37 38 39 40 41 42 43 44 45 46 47 48 49 50

000
ASUS43 KLSX 290207
RWRMO

WEATHER SUMMARY FOR MISSOURI
NATIONAL WEATHER SERVICE SPRINGFIELD MO
800 PM CST WED JAN 28 2015

NOTE: "FAIR" INDICATES FEW OR NO CLOUDS BELOW 12,000 FEET WITH NO
       SIGNIFICANT WEATHER AND/OR OBSTRUCTIONS TO VISIBILITY.
       CURRENT SKY AND/OR WEATHER CONDITIONS ARE NOT AVAILABLE FOR
       CHILLICOTHE AND FARMINGTON.

MOZ001>031-035>038-043-044-053-054-290300-
...NORTHERN AND WESTERN MISSOURI...

CITY           SKY/WX    TMP DP  RH WIND       PRES   REMARKS
KANSAS CTY INT PTCLDY    59  38  45 W7        29.74R
KANSAS C DTWN  PTCLDY    65  38  36 W9        29.74R
LEE`S SUMMIT   CLEAR     63  40  42 SW14      29.76R
ST JOSEPH      PTCLDY    55  37  50 W8        29.73R
CHILLICOTHE      N/A     58  41  53 S8        29.70S
KIRKSVILLE     MOCLDY    43  36  76 S10       29.71S

$$
MOZ066>068-077>081-088>096-101>105-290300-
...SOUTHWEST MISSOURI...

CITY           SKY/WX    TMP DP  RH WIND       PRES   REMARKS
SPRINGFIELD    CLOUDY    60  40  47 S20       29.87R
JOPLIN         CLEAR     64  41  42 S21       29.85S

$$
MOZ032>034-039>042-045>050-055>058-069>072-290300-
...CENTRAL MISSOURI...

CITY           SKY/WX    TMP DP  RH WIND       PRES   REMARKS
COLUMBIA       CLOUDY    53  36  52 S22G29    29.79F
JEFFERSON CITY CLOUDY    54  35  48 S15G21    29.82S
ROLLA          CLOUDY    48  34  58 S20G30    29.85F
SEDALIA        MOCLDY    58  38  47 S16       29.76F
WHITEMAN AFB   PTCLDY    54  39  57 S14       29.75R
WARRENSBURG    PTCLDY    59  37  44 S9        29.74S
OSAGE BEACH    CLOUDY    55  34  44 S14G21    29.84S

$$
MOZ051-052-059>065-290300-
...EAST CENTRAL MISSOURI...

CITY           SKY/WX    TMP DP  RH WIND       PRES   REMARKS
ST LOUIS INTL  MOCLDY    45  33  63 S14G23    29.91S
SPIRIT OF STL  FAIR      47  32  56 S12G23    29.88F
ST CHARLES     PTCLDY    43  34  70 SE15      29.89F

$$
MOZ072>076-082>087-097>100-106>115-290300-
...SOUTH CENTRAL AND SOUTHEAST MISSOURI...

CITY           SKY/WX    TMP DP  RH WIND       PRES   REMARKS
CAPE GIRARDEAU PTCLDY    43  32  65 SE5       30.06F
FARMINGTON     PTCLDY    43  34  70 S15       30.00S
POPLAR BLUFF   MOCLDY    41  34  76 SE6       30.03F
WEST PLAINS    PTCLDY    47  34  60 S8        29.98F

$$



USA.gov is the U.S. government's official web portal to all federal, state and local government web resources and services.